Wind_Speed
23 24 25 26 23 22 22 19 20 17 15 15 12 11 7 3 6 3 7 9 9 9 13 12 21 27 26 28 28 30 28 33 33 35 35 33 31 28 26 24 24 23 21 18
25 23 26 28 27 26 28 26 26 26 25 21 17 16 5 0 2 2 3 6 8 7 8 6 7 12 17 21 24 28 26 27 32 31 30 29 30 32 28 25 26 25 20 16
24 22 22 27 26 28 26 28 25 27 28 23 21 18 17 9 2 4 3 5 6 7 6 8 7 7 13 17 22 26 27 27 26 29 30 29 28 27 29 29 26 22 21 21
19 20 26 26 23 24 26 24 25 29 29 28 25 19 3 3 7 2 4 5 7 7 8 9 13 12 12 15 25 28 29 29 31 26 28 29 27 27 28 28 29 29 28 31
18 19 24 25 20 20 24 28 23 27 20 19 17 28 8 6 3 2 5 7 8 11 11 13 12 12 13 15 21 25 32 32 32 33 30 32 32 32 32 32 31 32 35 31
16 21 26 24 22 23 24 23 20 25 17 14 5 8 4 10 5 4 7 9 12 14 14 14 15 18 15 13 16 23 26 28 28 30 29 28 28 30 31 30 29 30 24 18
16 19 25 25 27 26 18 14 10 15 13 10 7 4 6 5 5 6 9 11 13 15 15 17 19 17 19 16 16 18 20 24 24 25 27 28 28 29 30 29 26 20 13 12
17 22 31 13 14 22 21 4 7 5 7 2 5 7 10 8 9 10 12 14 15 17 17 18 19 16 17 16 14 15 18 19 21 24 26 29 31 32 29 33 27 21 20 15
20 20 26 24 19 17 15 4 1 3 4 2 6 8 9 11 12 13 13 15 18 19 18 19 19 10 18 16 13 14 15 17 19 21 25 26 30 27 25 24 24 24 20 17
22 21 27 28 22 18 13 13 7 6 6 7 8 9 12 12 11 13 15 18 20 18 17 19 17 13 18 17 9 10 13 16 17 20 17 21 20 21 24 23 22 19 17 22
23 26 28 33 29 25 20 16 14 11 9 11 9 13 13 13 12 14 15 20 22 19 18 21 16 15 16 12 8 10 12 17 21 25 28 26 23 16 13 4 17 23 17 17
9 19 19 26 25 27 25 23 19 19 17 10 10 15 16 14 12 15 15 19 20 23 20 14 15 15 14 6 16 20 20 21 26 26 26 26 32 30 33 31 29 24 21 22
21 20 23 27 27 28 24 27 22 21 13 11 14 16 15 14 15 15 16 18 17 18 16 10 9 10 11 23 26 24 24 24 26 24 26 23 22 22 24 29 29 25 18 14
25 24 24 27 18 23 20 20 24 15 14 13 17 21 17 14 15 14 13 12 6 8 10 12 18 20 12 15 22 24 21 21 20 19 23 22 23 24 24 20 20 17 16 12
27 26 28 21 19 19 19 17 21 15 14 15 17 11 13 10 8 6 11 10 14 19 20 19 23 24 27 28 27 26 23 20 22 24 20 19 19 17 16 22 22 21 15 12
21 14 23 22 18 20 17 12 18 15 14 11 9 5 5 6 11 18 19 17 18 17 22 23 25 24 29 28 28 26 24 23 21 22 21 19 18 17 18 16 19 16 13 12
18 16 12 17 16 17 15 18 15 12 9 10 4 12 12 14 18 19 18 20 24 26 27 28 25 19 18 21 18 19 17 16 16 14 15 16 14 13 12 14 14 12 12 9
10 7 10 11 12 15 16 13 9 9 6 14 20 18 15 14 14 18 18 21 24 25 25 26 28 28 24 23 16 10 10 13 13 14 14 14 13 12 12 14 14 10 8 9
7 7 5 3 5 8 9 11 7 8 18 21 22 17 22 20 20 18 19 21 20 19 16 19 24 29 25 20 19 15 11 13 12 13 15 17 14 13 12 12 12 11 10 9
9 7 5 2 3 6 5 9 18 24 24 26 26 24 21 20 23 21 20 23 19 16 16 20 23 22 19 10 13 10 13 11 13 12 12 14 14 15 14 9 8 8 7 5
13 10 7 9 8 13 22 23 24 22 27 28 28 22 22 22 19 18 20 15 16 18 18 15 12 13 13 12 13 14 14 14 13 12 15 15 14 12 9 8 7 7 4 3
14 16 17 16 15 16 26 31 30 30 30 26 23 24 26 23 22 22 19 18 15 14 15 15 15 15 14 13 14 14 14 14 14 14 12 11 10 8 7 5 4 3 2 1
16 21 20 19 16 24 30 31 30 31 25 20 20 20 21 20 19 17 10 17 16 17 18 17 16 16 15 15 16 15 15 15 13 12 10 9 7 5 4 3 1 1 2 3
16 20 21 20 26 25 17 26 29 24 19 18 18 19 21 20 22 21 21 19 19 19 17 16 15 15 15 15 15 15 15 14 12 10 8 5 5 4 2 0 2 3 3 4
18 19 19 17 16 15 24 24 20 15 21 22 21 19 18 18 20 19 19 19 19 19 18 16 16 17 16 15 14 13 11 9 7 5 4 4 3 2 4 5 6 7 8 9
15 16 18 19 18 19 18 18 16 18 21 20 18 18 17 18 18 18 17 16 15 15 15 13 13 13 11 10 8 7 6 4 1 5 5 7 7 9 10 9 12 12 12 13
13 9 17 16 16 17 17 20 21 20 17 14 14 15 16 16 16 15 13 14 16 15 14 11 10 8 7 5 5 4 5 6 6 9 6 5 7 8 10 10 11 11 11 11
Wind_Direction
279 283 280 280 277 276 275 272 273 278 270 269 267 102 90 20 62 46 30 26 31 350 334 329 190 189 195 216 206 217 215 207 212 211 214 210 209 213 209 206 199 209 215 217
272 272 277 274 268 266 260 257 264 272 270 273 286 303 316 294 71 287 18 14 7 4 348 311 339 191 202 214 227 210 226 226 212 214 216 215 207 201 201 199 196 201 207 206
272 276 274 262 250 257 261 260 257 252 256 262 259 267 277 266 200 226 309 354 344 330 355 352 322 261 247 226 226 235 217 226 226 211 208 211 209 198 194 190 190 190 196 191
266 271 255 262 264 271 276 261 254 253 253 260 261 254 224 28 270 67 303 325 318 322 326 336 323 306 291 271 218 218 230 220 221 217 209 205 202 195 189 186 186 189 191 195
259 258 263 268 260 256 257 260 263 259 268 276 260 244 199 183 162 288 307 305 320 311 330 309 298 301 283 258 253 225 217 219 215 215 211 203 197 190 185 185 189 190 191 191
254 262 263 266 267 257 268 264 269 276 268 246 207 239 285 165 133 303 307 321 315 322 310 312 320 310 313 291 255 247 228 222 216 213 212 206 200 191 186 188 192 191 185 178
248 250 257 266 280 288 259 287 307 311 198 224 223 269 23 355 322 312 308 307 317 311 316 317 314 312 311 302 281 266 236 220 216 210 206 202 195 191 186 182 181 182 176 153
276 264 266 256 276 262 265 265 322 10 42 24 290 316 299 315 315 315 316 320 323 318 319 322 315 310 303 294 274 261 232 214 209 199 199 196 190 185 185 168 160 165 153 143
280 283 296 304 312 294 319 296 194 229 293 269 264 276 304 312 313 321 322 322 319 314 319 318 309 319 297 289 264 240 213 208 202 181 194 186 179 156 146 164 163 165 163 146
286 275 272 278 286 279 260 251 259 213 245 281 288 301 302 303 316 315 318 320 312 312 320 309 317 319 303 286 256 223 199 189 183 177 151 144 133 144 152 167 168 169 166 135
271 276 284 281 277 276 268 274 267 253 261 261 295 296 299 300 308 308 317 316 320 317 310 306 297 302 295 295 232 203 154 127 111 107 108 99 87 76 99 147 180 150 147 140
259 259 263 267 272 277 282 253 234 251 258 256 283 285 285 288 304 305 324 317 313 307 305 300 303 297 277 246 144 121 110 106 116 115 112 112 111 96 91 94 118 123 141 156
250 252 257 265 271 271 276 288 258 249 253 266 272 271 280 289 301 330 308 324 313 305 304 313 328 302 155 150 140 126 123 125 120 128 127 129 118 112 95 80 93 92 94 94
242 241 251 246 255 259 257 278 288 256 262 268 265 271 284 294 303 317 330 339 16 51 55 62 59 56 100 118 114 114 120 128 120 115 124 125 126 120 115 113 102 92 91 107
269 241 232 241 250 242 246 249 269 242 246 251 256 278 288 301 334 18 57 61 68 60 47 53 59 56 70 85 88 93 97 102 109 109 106 111 123 128 119 124 118 117 132 121
323 293 214 209 225 231 218 232 241 233 227 246 261 273 62 73 91 75 66 64 71 61 52 54 57 72 88 90 90 90 100 101 101 108 113 115 114 123 139 134 126 144 152 127
350 20 100 159 205 202 203 216 216 214 217 231 187 115 113 109 90 80 73 71 74 68 60 58 59 64 78 88 83 98 111 123 121 118 123 124 135 131 126 124 121 125 116 123
73 102 169 160 186 193 193 190 182 207 243 98 116 118 110 93 93 86 80 77 70 66 61 65 69 64 63 60 69 68 100 103 109 114 112 108 111 111 111 106 107 117 124 149
65 80 63 29 126 134 162 181 149 110 115 113 112 103 98 95 100 105 93 80 78 71 58 68 69 75 57 68 63 60 67 72 76 83 103 115 113 107 107 111 118 123 124 140
38 53 70 105 109 99 117 93 114 112 107 107 97 88 85 84 89 85 83 78 77 83 82 76 70 77 87 85 104 113 90 103 109 98 104 98 94 81 78 87 113 116 126 142
17 10 102 89 94 119 117 109 104 103 101 100 99 98 98 104 99 91 79 76 73 84 84 82 94 90 95 103 109 114 111 107 105 98 91 95 100 109 120 125 122 121 134 152
54 72 86 76 72 83 93 99 99 96 95 97 101 103 101 98 94 88 85 89 91 91 88 87 89 90 93 95 93 95 96 93 90 88 91 95 101 106 102 102 99 109 141 189
41 63 62 64 77 82 83 90 93 97 100 104 111 112 107 105 102 98 91 87 86 86 85 86 88 86 84 82 80 79 81 82 84 85 84 79 79 84 98 90 95 217 234 249
63 65 60 67 80 87 83 90 96 98 102 110 108 97 95 96 92 91 94 96 99 94 93 93 90 87 86 86 85 83 81 81 80 82 89 89 85 69 48 76 255 253 268 245
71 91 83 77 84 95 103 112 124 130 110 100 103 100 95 92 102 104 101 100 102 99 97 94 90 88 88 88 87 87 86 86 89 80 69 58 40 13 302 307 306 313 316 307
63 75 92 101 107 111 119 116 114 101 102 101 102 103 103 104 105 104 105 108 110 114 104 99 91 90 89 89 88 87 91 96 76 45 1 360 346 335 326 329 324 313 302 294
87 98 92 91 99 107 103 99 98 99 107 116 109 98 94 95 98 104 112 110 106 106 108 112 104 96 84 71 66 58 43 41 35 10 12 6 350 343 342 342 325 339 336 320
Height
728 721 716 714 717 714 718 710 717 703 704 687 671 679 686 683 689 693 695 692 691 690 685 681 677 686 696 703 707 711 713 717 722 726 731 736 742 749 754 759 765 769 772 776
742 730 727 725 713 711 709 709 709 705 702 675 672 667 677 684 692 695 698 698 696 693 690 688 688 690 696 701 703 707 710 711 715 720 727 731 734 739 745 751 756 760 767 771
749 729 726 729 713 711 705 696 698 710 693 680 681 679 679 680 691 695 700 700 699 695 691 691 693 694 696 698 702 703 705 707 709 714 719 724 729 734 739 743 750 755 759 760
749 740 754 703 688 690 692 684 679 679 680 675 672 670 676 682 691 694 699 700 698 694 693 693 692 692 692 692 693 696 700 701 705 710 713 718 723 728 734 739 741 744 748 747
751 743 722 707 693 696 697 693 674 676 673 667 661 664 675 684 689 699 700 699 696 694 693 694 690 690 689 688 689 688 688 691 697 703 707 711 714 719 725 729 733 735 735 739
744 749 740 699 685 676 678 696 676 671 670 672 673 697 691 678 693 698 699 699 698 694 690 687 685 683 681 680 681 682 682 686 690 694 700 707 713 717 719 725 730 734 738 742
728 729 710 697 691 682 717 702 674 661 663 674 687 687 691 693 697 699 699 698 696 692 689 685 683 681 679 676 675 676 677 681 685 689 694 701 707 713 717 721 728 737 743 745
724 723 716 686 690 707 688 679 685 686 685 691 693 695 695 696 698 698 696 693 692 690 687 685 683 679 678 675 673 675 675 676 678 682 689 693 699 704 710 709 719 730 736 744
731 715 695 692 692 682 678 681 687 694 693 696 700 700 699 697 695 694 693 692 690 688 686 686 683 680 679 674 672 673 672 673 677 676 685 688 693 700 703 716 717 722 730 734
735 718 708 699 692 688 683 686 687 691 697 698 702 701 701 698 695 693 691 690 689 686 686 686 681 681 678 673 671 670 669 671 677 683 684 691 699 705 705 713 720 723 731 726
741 731 723 708 697 694 689 689 685 689 692 697 701 703 701 698 697 694 691 689 686 687 686 684 681 679 676 671 669 668 671 674 679 683 687 695 703 708 711 715 717 715 733 739
733 723 720 706 698 693 687 684 687 689 691 692 700 704 701 696 695 693 690 690 687 684 682 681 680 676 673 671 670 672 676 679 682 686 692 699 705 714 714 718 721 723 735 737
719 711 709 702 696 693 694 689 678 681 687 694 699 698 695 692 691 691 690 690 689 685 683 681 678 675 672 671 672 675 680 684 688 693 696 703 708 713 716 725 724 731 742 750
697 697 697 695 692 688 688 687 682 679 684 692 695 693 690 687 687 690 692 693 691 689 687 683 680 678 677 676 678 682 686 691 695 700 701 706 712 716 722 726 730 740 742 753
670 668 668 675 682 682 683 684 683 677 683 687 687 687 687 687 690 697 698 698 696 694 692 688 686 686 684 686 689 692 697 701 704 705 711 717 718 719 729 729 731 738 752 756
650 638 645 663 675 672 672 677 679 676 681 683 684 684 692 699 701 700 701 701 698 699 699 697 696 697 697 698 700 703 705 712 714 714 717 721 727 728 732 734 736 744 753 753
651 646 641 659 666 661 668 670 669 673 677 679 679 692 699 702 701 704 707 708 706 706 707 708 708 710 711 712 715 712 715 717 720 720 723 721 731 732 731 732 738 744 749 752
659 658 657 652 656 658 660 663 668 673 674 676 689 697 699 702 706 711 714 714 714 715 716 717 716 716 718 720 722 724 724 723 726 727 726 729 735 736 735 738 743 750 753 757
658 656 657 654 652 655 660 663 666 674 684 689 695 699 704 709 712 715 717 717 719 722 726 723 723 720 725 728 729 731 737 736 739 738 736 735 738 740 743 745 749 754 756 759
665 663 661 660 659 660 664 668 676 684 691 695 700 705 711 716 717 721 725 725 729 731 731 730 728 728 729 736 738 736 736 747 746 745 744 744 744 743 744 752 753 755 757 760
674 670 666 669 668 669 673 679 686 692 699 704 707 715 719 725 727 728 727 730 736 736 737 738 742 741 742 744 747 749 749 750 749 749 747 748 748 752 754 756 756 756 760 763
676 676 680 680 679 679 685 691 696 702 708 713 718 723 726 731 732 731 733 735 739 740 741 743 745 745 746 747 748 748 749 748 748 749 751 753 755 757 758 758 758 759 762 762
691 693 692 693 693 695 698 702 707 711 718 722 725 728 729 732 735 737 740 744 744 745 746 749 749 750 752 752 751 752 753 753 755 756 757 758 760 761 761 760 761 761 761 760
708 708 704 705 704 706 707 715 718 721 725 728 729 731 733 736 741 744 747 749 750 750 752 754 755 755 755 756 757 758 758 758 760 762 764 764 764 763 763 762 761 761 760 760
716 717 717 716 715 718 722 725 727 729 730 732 735 737 739 742 744 748 751 753 755 756 758 759 758 758 759 760 761 761 762 763 763 764 763 763 763 762 762 762 760 759 758 756
722 721 722 724 725 727 728 730 731 733 736 741 744 745 746 747 749 751 753 755 757 757 759 760 761 762 763 763 763 763 763 765 764 764 764 764 764 762 760 759 761 759 759 757
726 726 727 730 732 733 734 734 737 742 745 745 745 746 748 750 752 754 754 755 757 759 761 763 763 765 765 765 765 765 766 766 767 767 766 765 764 761 759 757 759 757 756 754